TimeCDT,TemperatureF,Dew PointF,Humidity,Sea Level PressureIn,VisibilityMPH,Wind Direction,Wind SpeedMPH,Gust SpeedMPH,PrecipitationIn,Events,Conditions,WindDirDegrees,DateUTC
12:53 AM,82.9,72.0,69,29.92,10.0,SE,8.1,-,N/A,,Clear,130,2013-07-11 05:53:00
1:53 AM,84.0,71.1,65,29.93,10.0,SE,9.2,-,N/A,,Clear,140,2013-07-11 06:53:00
2:53 AM,80.1,71.1,74,29.94,10.0,ESE,5.8,-,N/A,,Clear,110,2013-07-11 07:53:00
3:53 AM,78.1,71.1,79,29.93,10.0,ESE,5.8,-,N/A,,Clear,110,2013-07-11 08:53:00
4:53 AM,78.1,71.1,79,29.92,10.0,ESE,5.8,-,N/A,,Clear,120,2013-07-11 09:53:00
5:53 AM,75.9,71.1,85,29.94,10.0,SE,6.9,-,N/A,,Partly Cloudy,130,2013-07-11 10:53:00
6:53 AM,78.1,70.0,76,29.94,10.0,SE,6.9,-,N/A,,Mostly Cloudy,140,2013-07-11 11:53:00
7:53 AM,82.0,71.1,69,29.95,10.0,ESE,5.8,-,N/A,,Mostly Cloudy,120,2013-07-11 12:53:00
8:53 AM,84.9,71.1,63,29.94,10.0,South,6.9,-,N/A,,Overcast,170,2013-07-11 13:53:00
9:53 AM,88.0,71.1,57,29.94,10.0,WSW,5.8,-,N/A,,Mostly Cloudy,250,2013-07-11 14:53:00
10:53 AM,91.0,71.1,52,29.94,10.0,North,5.8,-,N/A,,Mostly Cloudy,360,2013-07-11 15:53:00
11:53 AM,95.0,72.0,47,29.94,10.0,North,9.2,-,N/A,,Mostly Cloudy,10,2013-07-11 16:53:00
12:53 PM,96.1,71.1,44,29.94,10.0,NNE,8.1,-,N/A,,Mostly Cloudy,30,2013-07-11 17:53:00
1:53 PM,98.1,72.0,43,29.92,10.0,North,8.1,17.3,N/A,,Mostly Cloudy,360,2013-07-11 18:53:00
2:53 PM,100.0,71.1,39,29.91,10.0,North,11.5,-,N/A,,Mostly Cloudy,350,2013-07-11 19:53:00
3:53 PM,97.0,70.0,41,29.89,10.0,ENE,8.1,-,N/A,,Mostly Cloudy,70,2013-07-11 20:53:00
4:53 PM,99.0,72.0,42,29.86,10.0,East,9.2,-,N/A,,Mostly Cloudy,90,2013-07-11 21:53:00
5:53 PM,98.1,69.1,39,29.85,10.0,East,12.7,-,N/A,,Scattered Clouds,90,2013-07-11 22:53:00
6:53 PM,97.0,68.0,39,29.85,10.0,ESE,12.7,-,N/A,,Scattered Clouds,110,2013-07-11 23:53:00
7:53 PM,93.9,68.0,43,29.85,10.0,East,9.2,-,N/A,,Scattered Clouds,90,2013-07-12 00:53:00
8:53 PM,90.0,68.0,48,29.87,10.0,East,5.8,-,N/A,,Partly Cloudy,100,2013-07-12 01:53:00
9:53 PM,89.1,68.0,50,29.89,10.0,East,6.9,-,N/A,,Partly Cloudy,90,2013-07-12 02:53:00
10:53 PM,87.1,66.9,51,29.90,10.0,ENE,6.9,-,N/A,,Partly Cloudy,60,2013-07-12 03:53:00
11:53 PM,82.9,66.9,58,29.91,10.0,East,4.6,-,N/A,,Clear,90,2013-07-12 04:53:00